Lexington Weather

Lexington, Massachusetts, USA

45°F
9/19/2020 8:30am 
  • Lexington Conditions: Clear
  • Temperature: 45.0°F / 7.2°CWarmer 2.0°F than last hour.
  • Dew Point: 36.5°FIncreased 1.3°Fsince last hour.
  • Relative Humidity: 72%Decreased 2.0% since last hour.
  • Wind: Wind from WNW WNW 1 mph, 10-min avg: 1 mph, gust: 2 mph
  • Barometer: 30.26 inRising 0.03  inHg/hr Rising Slowly
  • Visibility: 10 miles
  • Rain Today: 0.00 in
  •   
Southeast Middlesex County - Special Weather Statement
 - SEE ALL NEARBY ALERTS -

Regional Weather Roundup
for Boston / Norton, MA

        
000
ASUS41 KBOX 190704
RWRBOX

REGIONAL WEATHER ROUNDUP
NATIONAL WEATHER SERVICE BOSTON/NORTON MA
300 AM EDT SAT SEP 19 2020

NOTE:  "FAIR" INDICATES FEW OR NO CLOUDS BELOW 12,000 FEET WITH NO 
SIGNIFICANT WEATHER AND/OR OBSTRUCTIONS TO VISIBILITY.

MAZALL-190800-
EASTERN MASSACHUSETTS
  
CITY           SKY/WX    TMP DP  RH WIND       PRES   REMARKS
BOSTON         CLEAR     49  30  48 N12       30.17R                  
BEVERLY        CLEAR     45  33  63 N7        30.17R                  
LAWRENCE       CLEAR     45  32  60 N5        30.21R                  
BEDFORD        CLEAR     45  30  55 NW6       30.18R                  
BLUE HILL        N/A     46  30  53 N10G23    30.15R                  
NORWOOD        CLEAR     49  31  49 N7        30.17R                  
MARSHFIELD     PTCLDY    57  39  51 N12G22    30.14R                  
PLYMOUTH       CLEAR     50  38  63 N9        30.13R                  
TAUNTON        CLEAR     48  34  58 NW5       30.15R                  
NEW BEDFORD    CLEAR     48  35  60 N5        30.13R                  
$$

MAZALL-190800-
CAPE COD AND THE ISLANDS
  
CITY           SKY/WX    TMP DP  RH WIND       PRES   REMARKS
FALMOUTH       NOT AVBL                                               
HYANNIS        CLEAR     57  42  57 N18G32    30.08R                  
CHATHAM        CLEAR     57  43  59 N7        30.09R                  
PROVINCETOWN   CLEAR     56  42  59 N20G30    30.12R                  
NANTUCKET      MOCLDY    58  44  60 N21G30    30.07R                  
MARTHAS VNYRD  CLEAR     54  42  64 N13G22    30.10R                  
$$
 
MAZALL-190800-
CENTRAL AND WESTERN MASSACHUSETTS
  
CITY           SKY/WX    TMP DP  RH WIND       PRES   REMARKS
WORCESTER      CLEAR     44  27  51 N10       30.17R                  
FITCHBURG      CLEAR     42  28  57 N5        30.20R                  
ORANGE         CLEAR     39  31  72 NW6       30.22R                  
SPRINGFIELD    CLEAR     43  30  60 N6        30.20R                  
WESTFIELD      CLEAR     37  32  82 CALM      30.21R                  
NORTH ADAMS    CLEAR     34  31  88 CALM      30.25S                  
PITTSFIELD     CLEAR     38  30  73 CALM      30.22R                  
$$
 
RIZALL-190800-
RHODE ISLAND
  
CITY           SKY/WX    TMP DP  RH WIND       PRES   REMARKS
PROVIDENCE     CLEAR     50  30  46 N14G21    30.16R                  
NEWPORT        CLEAR     52  34  50 N12G24    30.14R                  
BLOCK ISLAND   CLEAR     51  33  50 N20G28    30.13S                  
SMITHFIELD     CLEAR     46  30  53 N13       30.17R                  
WESTERLY       CLEAR     49  30  48 N13       30.15R                  
$$
 
CTZALL-190800-
CONNECTICUT
  
CITY           SKY/WX    TMP DP  RH WIND       PRES   REMARKS
BRADLEY INTL   CLEAR     44  30  57 N8        30.21R                  
HARTFORD       CLEAR     48  29  47 N7        30.21R                  
BRIDGEPORT     CLEAR     50  30  46 N8        30.20R                  
DANBURY        CLEAR     46  31  55 N6        30.23R                  
GROTON         CLEAR     49  30  48 N16       30.15R                  
NEW HAVEN      CLEAR     51  31  46 N13       30.19R                  
CHESTER        NOT AVBL                                               
MERIDEN        CLEAR     49  27  42 N9        30.20R                  
WILLIMANTIC    CLEAR     45  30  55 NW6       30.19R                  
OXFORD         CLEAR     40  31  70 N9        30.21R                  
$$

MEZ002-015-021-024-NHZ003-005-008-011-012-014-VTZ005-008-190800-
NORTHERN NEW ENGLAND
  
CITY           SKY/WX    TMP DP  RH WIND       PRES   REMARKS
PORTLAND ME    CLEAR     48  32  53 NW7       30.18R                  
BANGOR ME      CLEAR     36  28  73 CALM      30.16R                  
CONCORD NH     CLEAR     36  29  75 CALM      30.20R                  
MANCHESTER NH  CLEAR     47  29  49 N5        30.18R                  
NASHUA NH      CLEAR     45  30  55 NW6       30.20R                  
PORTSMOUTH NH  CLEAR     45  29  53 N8        30.16R                  
JAFFREY NH     CLEAR     41  28  60 CALM      30.20R                  
KEENE NH       CLEAR     33  32  96 CALM      30.24R                  
BURLINGTON VT  CLEAR     38  34  85 CALM      30.28R                  
MT. WASHINGTON CLEAR     21  16  79 N38G49      N/A  WCI   1          
$$

NYZ052-076-190800-
EASTERN NEW YORK
  
CITY           SKY/WX    TMP DP  RH WIND       PRES   REMARKS
ALBANY         PTCLDY    38  33  82 NW5       30.28R                  
NEW YORK CITY  PTCLDY    54  32  43 N13       30.22R                  
$$
 
ANZALL-190800-
MARINE OBSERVATIONS
  
STATION/POSITION TIME  TEMP    WIND        PRES    VSBY  WAVE
                       AIR SEA DIR/SP/G                  HT/PER
                 (UTC) (F)     (DEG/KT/KT) (MB)    (MI)  (FT/S)
BOSTON BUOY      0650   56 62   10/ 23/ 27 1019.0R         7/ 7
BUZZARDS BAY     0600          360/ 25/ 28 1020.0R
NANTUCKET SOUND  0650      69  360/ 23/ 29   N/A           4/ 4
MASS BAY-STELLWA 0604   56      30/ 23/ 29 1018.0R  1 7/8  8/ 6
ISLE OF SHOALS   0600   52     360/ 22/ 27 1020.6R
S OF BLOCK IS    0626      68                N/A           7/ 5
$$

......................KEY.........................
  SKY/WX - SKY CONDITION/PRESENT WEATHER
  TMP    - TEMPERATURE IN FAHRENHEIT
  DWPT   - DEWPOINT IN FAHRENHEIT
  RH     - RELATIVE HUMIDITY IN PERCENT
  WIND   - DIRECTION AND SPEED IN MPH
  PRES   - MEAN SEA LEVEL PRESSURE IN INCHES OF HG
  WCI    - WIND CHILL INDEX
  VSB    - VISIBILITY IN MILES
  HX     - HEAT INDEX
  TC     - TEMPERATURE IN CELSIUS
  VRB    - VARIABLE WIND DIRECTION
  N/A    - NOT AVAILABLE
  
      

Other recent Regional Weather Roundups

Sat Sep 19, 8:04am

Sat Sep 19, 7:04am

Sat Sep 19, 6:04am

Sat Sep 19, 5:04am

Sat Sep 19, 4:04am

Sat Sep 19, 2:04am

Sat Sep 19, 1:04am

Sat Sep 19, 12:04am

Fri Sep 18, 11:05pm

Fri Sep 18, 10:04pm

Fri Sep 18, 9:04pm

Fri Sep 18, 8:04pm

Fri Sep 18, 7:04pm

Fri Sep 18, 6:04pm

Fri Sep 18, 5:05pm

Fri Sep 18, 4:04pm

Fri Sep 18, 3:05pm

Fri Sep 18, 2:04pm

Fri Sep 18, 1:04pm

Fri Sep 18, 12:04pm

Fri Sep 18, 11:05am

Fri Sep 18, 10:05am

Fri Sep 18, 9:04am

Fri Sep 18, 8:04am

Fri Sep 18, 7:04am

Fri Sep 18, 6:04am

Fri Sep 18, 5:04am

Fri Sep 18, 4:04am

Fri Sep 18, 3:04am

Fri Sep 18, 2:04am

Fri Sep 18, 1:04am

Fri Sep 18, 12:04am

Thu Sep 17, 11:05pm

Thu Sep 17, 10:04pm

Thu Sep 17, 9:04pm

Thu Sep 17, 8:05pm

Thu Sep 17, 7:04pm

Thu Sep 17, 6:04pm

Thu Sep 17, 5:04pm

Thu Sep 17, 4:04pm

Thu Sep 17, 3:05pm

Thu Sep 17, 2:04pm

Thu Sep 17, 1:04pm

Thu Sep 17, 12:04pm

Thu Sep 17, 11:04am

Thu Sep 17, 10:04am

Thu Sep 17, 9:04am

Thu Sep 17, 8:04am

Thu Sep 17, 7:04am

Thu Sep 17, 6:04am

Thu Sep 17, 5:04am

Thu Sep 17, 4:04am

Thu Sep 17, 3:04am

Thu Sep 17, 2:05am

Thu Sep 17, 1:05am

Thu Sep 17, 12:04am

Wed Sep 16, 11:04pm

Wed Sep 16, 10:04pm

Wed Sep 16, 9:04pm

Wed Sep 16, 8:05pm

Wed Sep 16, 7:04pm

Wed Sep 16, 6:04pm

Wed Sep 16, 5:04pm

Wed Sep 16, 4:04pm

Wed Sep 16, 3:04pm

Wed Sep 16, 2:04pm

Wed Sep 16, 1:04pm

Wed Sep 16, 12:04pm

Wed Sep 16, 11:04am

Wed Sep 16, 10:04am

Wed Sep 16, 9:04am

Wed Sep 16, 8:04am

Wed Sep 16, 7:04am

Wed Sep 16, 6:04am

Wed Sep 16, 5:04am

Wed Sep 16, 4:04am

Wed Sep 16, 3:04am

Wed Sep 16, 2:04am

Wed Sep 16, 1:04am

Wed Sep 16, 12:05am

Tue Sep 15, 11:04pm

Tue Sep 15, 10:04pm

Tue Sep 15, 9:04pm

Tue Sep 15, 8:04pm

Tue Sep 15, 7:04pm

Tue Sep 15, 6:04pm

Tue Sep 15, 5:04pm

Tue Sep 15, 4:05pm

Tue Sep 15, 3:04pm

Tue Sep 15, 2:04pm

Tue Sep 15, 1:04pm

Tue Sep 15, 12:04pm

Tue Sep 15, 11:04am

Tue Sep 15, 10:04am

Tue Sep 15, 9:04am

Tue Sep 15, 8:04am

Tue Sep 15, 7:04am

Tue Sep 15, 6:04am

Tue Sep 15, 5:04am

Tue Sep 15, 4:04am

Tue Sep 15, 3:04am

Tue Sep 15, 2:04am

Tue Sep 15, 1:04am

Tue Sep 15, 12:05am

Mon Sep 14, 11:04pm

Mon Sep 14, 10:04pm

Mon Sep 14, 9:04pm

Mon Sep 14, 8:04pm

Mon Sep 14, 7:04pm

Mon Sep 14, 6:04pm

Mon Sep 14, 5:04pm

Mon Sep 14, 4:05pm

Mon Sep 14, 3:04pm

Mon Sep 14, 2:05pm

Mon Sep 14, 1:04pm

Mon Sep 14, 12:04pm

Mon Sep 14, 11:04am

Mon Sep 14, 10:05am

Mon Sep 14, 9:04am

Mon Sep 14, 8:04am

Mon Sep 14, 7:04am

Mon Sep 14, 6:04am

Mon Sep 14, 5:04am

Mon Sep 14, 4:04am

Mon Sep 14, 3:04am

Mon Sep 14, 2:04am

Mon Sep 14, 1:04am

Mon Sep 14, 12:04am

Sun Sep 13, 11:05pm

Sun Sep 13, 10:04pm

Sun Sep 13, 9:04pm

Sun Sep 13, 8:04pm

Sun Sep 13, 7:05pm

Sun Sep 13, 6:05pm

Sun Sep 13, 5:05pm

Sun Sep 13, 4:04pm

Sun Sep 13, 3:04pm

Sun Sep 13, 2:04pm

Sun Sep 13, 1:04pm

Sun Sep 13, 12:04pm

Sun Sep 13, 11:05am

Sun Sep 13, 10:04am

Sun Sep 13, 9:04am

Sun Sep 13, 8:04am

Sun Sep 13, 7:04am

Sun Sep 13, 6:04am

Sun Sep 13, 5:04am

Sun Sep 13, 4:04am

Sun Sep 13, 3:04am

Sun Sep 13, 2:04am

Sun Sep 13, 1:04am

Sun Sep 13, 12:04am

Sat Sep 12, 11:04pm

Sat Sep 12, 10:04pm

Sat Sep 12, 9:04pm

Sat Sep 12, 8:04pm

Sat Sep 12, 7:05pm

Sat Sep 12, 6:04pm

Sat Sep 12, 5:04pm

Sat Sep 12, 4:05pm

Sat Sep 12, 3:04pm

Sat Sep 12, 2:04pm

Sat Sep 12, 1:05pm

Sat Sep 12, 12:04pm

Sat Sep 12, 11:04am

Sat Sep 12, 10:04am

Sat Sep 12, 9:04am

Meta data:

ID: bb50c07d-8311-470c-b32d-e1be169f5274
Link: https://api.weather.gov/products/bb50c07d-8311-470c-b32d-e1be169f5274